Temperature
3 3 4 4 4 4 4 4 4 5 5 5 5 5 5 5 5 5 5 5 6 6 6 6 5 5 5 6 5 5 5 5 5 5 5 5 6 6 6 6 6 6 6
2 2 3 3 4 4 4 4 4 4 4 4 4 4 4 5 5 5 5 5 5 5 5 5 5 5 5 5 5 5 5 5 4 4 4 4 4 5 5 5 5 6 6
2 2 2 3 3 3 4 4 3 4 4 3 3 3 3 4 4 4 4 4 4 4 4 4 4 4 4 4 4 4 4 4 4 4 4 4 4 4 4 4 5 5 5
1 1 2 2 2 3 3 3 3 3 3 3 3 3 3 3 3 3 4 3 4 4 4 4 4 4 4 3 3 3 3 3 3 3 3 4 4 3 3 3 4 4 4
1 1 1 2 2 2 2 2 2 2 2 2 2 2 2 2 2 3 3 3 3 3 3 3 3 3 3 3 3 3 3 3 3 3 3 3 3 3 3 2 3 3 3
1 1 1 1 1 1 2 2 2 1 2 2 2 2 2 2 2 2 2 2 2 2 2 2 2 2 2 2 2 2 2 2 2 2 2 2 2 2 2 2 2 2 2
0 1 1 1 1 1 1 1 1 1 1 1 1 1 1 1 1 1 1 1 1 1 1 1 1 1 1 1 1 1 1 1 1 2 2 2 2 2 2 2 2 1 2
0 0 0 0 0 1 1 1 0 0 0 0 0 0 0 0 0 0 0 0 0 1 1 0 0 1 1 1 1 1 1 1 1 1 1 1 1 1 1 1 1 1 1
-0 -0 -0 -0 -0 -0 0 -0 -0 -0 -0 -0 -0 -0 -0 -0 -0 -0 -0 -0 -0 -0 -0 -0 -0 -0 -0 -0 -0 -0 -0 -0 -0 0 0 0 1 1 1 1 1 1 0
-1 -1 -1 -1 -1 -1 -1 -1 -1 -1 -1 -1 -1 -1 -1 -1 -1 -1 -1 -1 -1 -1 -1 -1 -1 -1 -1 -1 -1 -1 -1 -1 -1 -1 -0 -0 -0 -0 -0 -0 -0 -0 0
-1 -1 -1 -1 -1 -1 -1 -2 -2 -2 -2 -2 -2 -2 -2 -2 -2 -2 -2 -2 -2 -2 -2 -1 -2 -2 -2 -2 -2 -2 -2 -1 -1 -1 -1 -1 -1 -1 -1 -1 -1 -1 -1
-1 -1 -1 -2 -2 -2 -2 -2 -2 -2 -2 -2 -3 -2 -3 -3 -2 -2 -2 -2 -2 -2 -2 -2 -2 -2 -2 -2 -2 -2 -2 -2 -2 -2 -2 -2 -2 -2 -1 -1 -1 -1 -1
-2 -2 -2 -2 -2 -3 -3 -3 -3 -3 -3 -3 -3 -3 -3 -3 -3 -3 -3 -3 -3 -3 -3 -3 -3 -3 -3 -3 -3 -3 -3 -3 -2 -2 -2 -2 -2 -2 -2 -2 -2 -2 -2
-3 -3 -3 -3 -3 -3 -3 -3 -3 -3 -4 -4 -4 -4 -4 -4 -4 -4 -4 -4 -4 -4 -4 -4 -4 -4 -4 -4 -4 -4 -4 -3 -3 -3 -3 -3 -3 -3 -3 -2 -2 -3 -3
-4 -4 -4 -4 -4 -4 -4 -4 -4 -4 -4 -4 -5 -4 -4 -4 -5 -5 -4 -4 -4 -5 -4 -4 -4 -5 -5 -5 -5 -5 -5 -4 -4 -4 -4 -3 -3 -3 -3 -3 -3 -3 -3
-5 -5 -5 -5 -5 -5 -5 -5 -5 -5 -5 -5 -5 -5 -5 -5 -5 -5 -5 -5 -5 -5 -5 -5 -5 -5 -5 -5 -5 -6 -5 -5 -5 -5 -5 -4 -4 -4 -4 -4 -4 -4 -4
-5 -6 -6 -6 -6 -6 -6 -6 -6 -6 -6 -6 -6 -6 -6 -6 -6 -6 -6 -6 -6 -6 -6 -6 -6 -6 -6 -6 -6 -6 -6 -6 -6 -6 -5 -5 -5 -5 -4 -4 -4 -4 -4
-6 -6 -6 -6 -6 -7 -7 -6 -6 -6 -6 -7 -7 -7 -7 -7 -7 -7 -7 -7 -7 -7 -7 -7 -7 -7 -7 -7 -7 -7 -7 -7 -6 -6 -6 -6 -5 -5 -5 -5 -5 -5 -5
-7 -7 -7 -7 -7 -7 -7 -7 -7 -7 -7 -7 -7 -7 -7 -7 -7 -7 -7 -7 -8 -8 -7 -7 -7 -7 -7 -7 -7 -7 -7 -7 -7 -7 -6 -6 -6 -5 -5 -6 -5 -5 -5
-7 -7 -8 -8 -8 -8 -8 -8 -8 -8 -8 -8 -8 -8 -8 -8 -8 -8 -8 -8 -8 -8 -8 -8 -8 -8 -8 -8 -8 -8 -8 -8 -7 -7 -7 -6 -6 -6 -6 -6 -6 -6 -6
-8 -8 -8 -8 -9 -9 -9 -9 -9 -9 -9 -9 -9 -9 -9 -9 -9 -9 -9 -9 -9 -9 -9 -9 -9 -9 -9 -8 -8 -8 -8 -8 -8 -8 -7 -7 -6 -7 -6 -7 -6 -6 -6
-9 -9 -9 -9 -9 -10 -9 -9 -9 -10 -10 -10 -10 -10 -10 -10 -10 -10 -10 -10 -10 -10 -10 -10 -10 -10 -9 -9 -9 -9 -9 -9 -9 -8 -8 -7 -7 -7 -7 -7 -7 -7 -7
-9 -9 -10 -10 -10 -10 -10 -10 -10 -10 -10 -10 -10 -10 -10 -10 -11 -11 -11 -11 -11 -11 -11 -11 -11 -10 -10 -10 -10 -10 -10 -9 -9 -9 -9 -8 -8 -8 -8 -7 -7 -7 -7
-10 -10 -10 -10 -10 -11 -11 -11 -11 -11 -11 -11 -11 -11 -11 -11 -11 -11 -11 -12 -12 -12 -12 -12 -12 -11 -11 -11 -10 -10 -10 -10 -10 -10 -9 -9 -9 -9 -8 -8 -8 -8 -8
-11 -11 -11 -11 -11 -11 -11 -12 -12 -12 -12 -12 -12 -12 -12 -12 -12 -12 -12 -12 -12 -13 -13 -13 -12 -12 -12 -12 -11 -11 -11 -11 -10 -10 -10 -10 -9 -9 -9 -9 -9 -9 -9
-11 -11 -12 -12 -12 -12 -12 -12 -12 -12 -12 -13 -13 -13 -13 -13 -13 -13 -13 -13 -13 -13 -13 -13 -13 -13 -13 -12 -12 -12 -11 -11 -11 -11 -11 -11 -10 -10 -10 -10 -10 -9 -9
Wind_Speed
6 5 4 3 2 2 1 1 2 2 2 2 2 2 1 1 1 2 2 1 1 1 2 1 2 2 3 3 3 3 3 2 2 1 1 1 1 0 1 1 1 2 2
6 5 4 4 3 3 2 1 2 2 2 2 2 1 1 1 1 1 1 1 1 1 1 2 1 2 2 3 4 4 2 2 2 2 1 1 1 1 1 0 0 1 1
7 6 5 5 4 3 3 2 2 2 2 2 2 2 2 1 1 0 0 1 0 1 1 2 2 2 2 4 4 5 4 4 3 3 2 2 3 1 2 2 2 2 2
7 6 5 5 5 4 3 3 2 2 2 2 3 4 3 2 2 2 1 1 0 0 1 2 2 2 2 3 4 4 4 4 4 3 2 2 2 2 2 2 3 3 3
7 6 6 5 5 4 3 2 2 1 1 2 4 5 4 3 2 2 2 2 1 1 1 1 2 2 2 3 4 4 4 4 4 4 2 2 2 3 3 4 4 4 4
6 6 5 4 4 3 3 2 2 2 1 1 3 4 4 3 3 3 3 2 1 1 2 2 2 3 3 3 4 4 5 5 5 4 4 4 3 3 3 4 4 4 4
6 5 5 4 3 3 3 3 3 2 2 2 2 3 4 4 4 3 3 3 2 2 2 2 3 3 3 4 4 5 5 6 6 6 5 5 4 4 4 4 4 4 4
6 5 5 4 4 3 3 3 3 3 2 3 2 2 3 3 3 3 3 3 3 3 3 4 4 4 4 4 4 4 5 5 6 6 6 4 4 4 4 4 4 4 4
6 5 4 4 4 3 3 3 3 3 3 3 2 2 3 3 3 3 3 3 3 3 3 4 4 4 4 4 5 4 5 5 5 5 6 5 4 4 4 4 5 5 6
5 5 4 4 4 3 3 3 3 3 3 3 2 2 3 3 3 3 3 3 3 3 3 4 4 4 4 4 5 5 5 5 5 4 5 6 5 4 5 5 5 6 6
5 5 4 4 4 3 3 3 3 3 3 3 3 3 3 3 3 3 3 4 3 3 4 4 4 4 4 5 5 5 5 6 6 6 6 7 6 5 5 5 5 6 6
5 4 3 3 4 4 3 3 3 3 3 3 3 3 3 2 2 3 3 3 3 4 4 4 5 5 5 5 6 6 6 6 7 7 7 7 6 7 6 5 6 6 6
3 3 3 3 3 3 3 3 3 3 3 3 3 2 3 3 3 3 3 3 3 3 4 4 5 5 5 5 6 6 6 6 7 7 8 7 7 7 6 7 6 6 6
3 3 3 3 3 3 3 3 3 3 3 3 3 3 3 3 3 3 2 3 3 3 4 4 5 5 5 5 6 6 6 7 7 7 8 8 8 8 8 7 7 6 6
3 3 3 3 2 2 2 2 2 2 3 3 3 3 3 3 3 2 2 2 3 3 4 4 4 4 5 5 6 6 7 7 8 8 8 9 10 10 9 8 7 7 7
3 3 3 3 2 2 2 2 2 2 2 2 3 3 2 2 2 2 2 2 3 3 3 3 4 4 4 7 8 7 7 7 8 8 8 8 9 10 12 12 12 11 10
3 3 2 2 2 2 2 2 2 2 2 2 2 2 2 2 2 2 2 2 3 3 3 3 4 5 6 8 9 9 7 7 8 8 8 7 8 9 9 11 12 13 14
2 2 2 2 2 2 2 2 2 1 1 2 2 2 2 2 2 2 2 3 3 3 3 4 4 5 6 8 8 9 7 7 8 9 9 9 9 9 9 9 9 10 11
2 2 1 1 1 1 2 1 1 1 1 2 3 3 3 3 2 2 3 3 3 3 4 4 4 5 7 8 8 7 6 6 8 8 9 10 9 11 12 10 10 10 10
1 1 1 1 1 1 1 1 1 2 2 3 3 3 3 3 3 3 4 4 3 4 4 4 5 5 6 7 8 7 5 6 7 7 8 11 11 12 12 10 10 11 10
1 1 1 1 1 1 1 1 1 2 3 4 3 3 3 3 3 3 3 3 3 3 3 4 4 5 6 7 8 8 5 6 6 6 7 7 12 13 13 12 10 12 10
1 1 1 1 2 1 1 1 2 3 3 3 3 3 3 3 3 3 3 3 3 3 4 4 4 4 5 6 8 9 9 8 7 7 6 7 11 12 12 11 11 12 10
1 1 1 1 2 2 1 2 3 3 3 3 3 3 3 3 3 3 3 3 3 3 3 4 4 5 5 6 8 9 10 10 7 7 10 11 11 11 10 11 11 9 7
1 1 1 1 2 2 2 2 3 3 2 3 3 3 3 3 3 3 3 3 3 3 4 4 5 5 5 5 5 6 7 9 8 8 9 11 12 9 8 8 7 6 6
1 1 1 2 3 3 3 3 3 2 3 3 3 3 3 3 3 3 3 4 4 4 4 4 5 5 6 7 9 7 6 6 7 6 5 5 5 5 5 5 5 5 5
1 1 2 2 3 3 3 3 3 3 3 3 3 3 3 3 3 4 4 5 6 7 8 8 7 7 9 10 10 10 10 9 8 5 4 5 5 5 5 5 5 5 5
Wind_Direction
219 206 199 197 189 176 155 142 161 147 132 138 146 144 124 88 69 55 41 36 70 97 110 121 148 156 159 154 152 138 135 133 134 115 66 23 23 43 71 83 111 111 119
220 211 201 200 200 194 183 179 189 177 166 170 175 174 152 125 75 59 37 17 78 110 117 136 153 173 168 164 163 158 164 176 182 179 185 214 224 221 225 185 163 180 153
220 217 212 210 208 208 205 204 211 205 189 180 163 135 123 116 152 140 4 338 355 103 155 162 164 179 179 183 184 185 183 191 202 207 215 213 221 247 217 220 214 214 222
218 219 218 216 217 217 208 204 213 211 203 181 184 180 189 203 221 216 210 240 249 188 179 177 181 189 198 195 197 201 208 205 203 212 246 258 231 220 219 219 221 225 229
215 216 221 220 219 215 201 197 204 204 205 202 197 196 202 209 205 203 201 199 207 215 197 200 200 202 209 209 209 209 212 216 219 219 226 234 237 238 231 237 236 233 230
213 215 221 220 214 206 191 188 191 193 199 215 214 204 198 198 196 203 202 206 209 224 222 223 221 219 219 216 216 213 216 222 226 231 228 222 217 221 229 238 238 243 243
206 209 210 206 206 201 192 192 193 198 203 209 218 218 203 201 207 209 207 212 220 236 233 241 236 234 232 227 224 220 219 223 226 230 234 232 236 233 236 233 245 258 267
206 210 212 206 207 204 199 197 202 207 208 211 220 224 219 210 214 221 219 220 229 239 244 243 242 243 238 232 226 226 226 225 228 234 237 238 236 230 227 233 239 254 259
212 212 212 213 213 208 208 210 210 214 218 218 223 224 225 227 221 222 223 225 236 246 242 246 244 241 235 230 228 228 226 226 227 233 235 239 241 236 238 237 232 236 249
213 212 212 216 217 215 214 216 214 216 221 221 223 231 233 238 239 226 223 225 231 239 239 244 245 246 243 235 232 232 231 228 230 233 236 239 240 236 236 235 237 241 248
216 216 219 218 215 211 212 218 219 220 221 223 226 233 232 234 239 239 232 230 230 233 238 244 246 247 247 244 238 238 236 235 235 234 236 241 241 240 236 235 235 236 242
218 217 218 217 215 212 214 218 221 224 228 224 225 234 232 231 241 251 246 237 234 234 235 239 243 246 247 245 240 240 241 241 241 239 239 243 242 244 240 235 235 236 238
218 221 221 223 225 223 219 220 221 226 230 225 222 233 231 235 248 257 261 253 245 243 239 235 239 245 248 249 248 245 246 248 249 246 240 241 240 244 244 238 238 240 240
224 231 238 238 239 245 231 228 230 227 226 223 223 232 236 239 253 259 262 268 255 246 244 242 243 248 250 250 251 250 249 251 252 252 246 243 240 242 244 242 241 240 240
245 242 244 254 251 259 256 242 242 238 229 225 230 242 246 247 246 247 264 276 269 257 254 251 251 250 251 250 251 253 252 252 253 254 252 245 245 245 246 243 240 237 236
253 248 248 261 258 261 269 259 251 249 235 230 246 255 241 237 240 253 267 279 283 281 272 261 257 255 257 261 258 261 257 255 254 254 257 253 250 249 252 250 246 241 237
252 245 247 262 269 272 277 272 267 257 237 241 263 280 263 252 256 265 276 280 282 284 279 276 272 269 270 267 261 261 261 256 253 253 255 256 252 251 253 250 250 249 246
255 255 258 277 294 301 302 303 292 256 244 265 286 298 294 281 281 274 271 277 280 281 282 283 284 284 280 275 268 263 263 259 255 255 253 254 253 249 251 250 251 252 248
267 273 271 275 302 316 317 326 319 296 282 288 295 300 294 283 280 277 281 282 286 286 286 286 287 289 286 280 275 271 269 263 262 259 256 253 254 252 251 249 251 255 256
3 350 7 13 354 342 346 346 317 306 297 298 301 300 293 277 274 275 281 284 284 284 291 292 293 294 292 284 281 276 272 270 270 268 262 255 254 255 251 248 248 251 255
41 38 46 9 340 341 345 322 309 303 305 308 307 304 297 284 279 282 284 286 287 288 291 291 294 294 294 287 283 280 277 274 275 273 270 262 260 259 254 253 251 254 255
35 33 22 351 345 337 318 310 308 313 316 313 309 306 304 298 293 290 291 290 290 288 290 294 298 300 300 294 284 284 284 283 275 273 275 272 268 263 260 258 262 261 258
329 341 336 332 334 335 324 305 313 321 317 312 309 309 312 306 300 293 291 291 289 288 293 297 300 305 307 302 292 289 289 284 278 275 277 278 274 268 263 263 265 260 253
307 317 326 320 326 337 330 311 312 313 307 305 308 310 312 311 303 294 286 283 282 285 291 295 298 302 304 305 306 299 290 285 282 282 277 272 271 271 270 268 264 259 256
303 309 303 305 313 324 323 321 317 314 305 302 302 303 303 303 298 289 281 281 277 281 286 288 291 294 296 302 309 310 302 296 293 292 285 281 274 271 273 271 269 267 262
295 302 302 303 310 315 314 317 317 309 300 299 301 300 300 298 296 293 293 287 287 290 291 293 294 293 296 303 303 303 305 306 303 293 283 281 283 281 280 277 275 272 268
Height
1501 1502 1502 1503 1504 1504 1505 1506 1507 1508 1509 1509 1510 1511 1513 1514 1515 1516 1516 1517 1518 1518 1519 1520 1520 1521 1522 1523 1524 1525 1527 1528 1529 1530 1531 1532 1533 1533 1534 1534 1535 1536 1537
1497 1498 1499 1500 1500 1501 1502 1503 1503 1504 1505 1506 1508 1508 1509 1510 1512 1512 1513 1514 1515 1515 1516 1516 1517 1518 1519 1520 1521 1522 1523 1525 1526 1527 1528 1530 1531 1530 1530 1531 1532 1533 1534
1493 1494 1495 1496 1497 1498 1499 1499 1500 1501 1502 1503 1504 1505 1506 1507 1508 1509 1510 1511 1511 1512 1512 1513 1514 1515 1516 1516 1517 1519 1520 1521 1523 1525 1526 1527 1527 1527 1528 1527 1528 1530 1531
1490 1491 1492 1493 1494 1495 1496 1496 1497 1498 1499 1500 1501 1501 1502 1503 1504 1505 1506 1507 1507 1508 1509 1509 1510 1511 1512 1513 1514 1515 1516 1518 1519 1520 1521 1523 1523 1524 1524 1525 1525 1526 1527
1486 1487 1488 1489 1490 1491 1492 1493 1494 1495 1495 1496 1497 1498 1499 1499 1500 1501 1502 1502 1503 1504 1505 1506 1506 1507 1508 1509 1510 1511 1512 1514 1515 1516 1517 1518 1519 1519 1520 1520 1521 1522 1523
1483 1484 1485 1486 1487 1488 1489 1490 1490 1491 1492 1492 1493 1494 1495 1495 1496 1497 1497 1498 1499 1500 1501 1502 1502 1503 1504 1505 1506 1507 1508 1509 1510 1511 1512 1513 1514 1515 1516 1516 1516 1517 1518
1480 1481 1482 1483 1483 1484 1485 1486 1486 1487 1488 1488 1489 1490 1491 1491 1492 1492 1493 1493 1494 1495 1496 1497 1498 1499 1500 1501 1501 1502 1503 1504 1505 1506 1508 1509 1510 1511 1512 1513 1512 1513 1513
1477 1479 1479 1480 1480 1481 1481 1482 1483 1483 1484 1484 1485 1486 1487 1487 1488 1488 1489 1489 1489 1490 1491 1492 1493 1494 1495 1496 1497 1498 1498 1499 1500 1501 1502 1504 1505 1506 1507 1508 1509 1508 1509
1475 1476 1476 1477 1477 1478 1478 1479 1479 1480 1480 1480 1481 1482 1482 1483 1484 1484 1485 1485 1485 1486 1487 1488 1489 1490 1491 1491 1492 1492 1493 1494 1495 1496 1497 1498 1500 1501 1502 1503 1505 1506 1504
1472 1473 1474 1474 1475 1475 1475 1476 1476 1476 1476 1477 1477 1478 1478 1479 1480 1480 1480 1480 1481 1482 1482 1483 1484 1485 1485 1486 1487 1487 1488 1489 1490 1491 1492 1493 1494 1495 1497 1498 1499 1500 1500
1469 1470 1470 1471 1472 1472 1472 1472 1472 1472 1473 1473 1474 1474 1475 1475 1475 1476 1476 1476 1476 1477 1477 1478 1479 1480 1480 1481 1482 1482 1483 1484 1484 1485 1486 1487 1489 1490 1491 1492 1493 1494 1495
1467 1467 1467 1467 1468 1468 1468 1468 1468 1469 1469 1469 1470 1470 1470 1471 1471 1471 1471 1471 1472 1472 1472 1473 1474 1475 1475 1476 1476 1477 1477 1478 1478 1480 1481 1481 1483 1484 1485 1486 1487 1488 1489
1464 1464 1464 1464 1464 1464 1464 1464 1465 1465 1465 1465 1465 1466 1466 1466 1466 1466 1467 1467 1467 1467 1468 1468 1469 1469 1470 1470 1471 1471 1471 1472 1473 1474 1475 1476 1477 1477 1478 1479 1480 1482 1482
1461 1461 1461 1461 1461 1461 1461 1461 1461 1461 1461 1461 1461 1461 1461 1461 1462 1462 1462 1462 1463 1462 1462 1463 1464 1464 1465 1465 1465 1466 1466 1466 1467 1468 1469 1469 1470 1471 1472 1473 1474 1475 1476
1458 1458 1458 1458 1457 1457 1457 1457 1457 1457 1457 1456 1456 1456 1457 1457 1457 1457 1457 1457 1458 1458 1458 1458 1458 1459 1459 1459 1460 1460 1461 1461 1461 1462 1463 1463 1464 1465 1466 1467 1468 1469 1470
1455 1455 1455 1454 1454 1454 1453 1453 1453 1453 1453 1453 1453 1453 1452 1452 1452 1452 1453 1453 1453 1453 1453 1453 1453 1453 1453 1454 1454 1455 1455 1455 1455 1456 1456 1457 1458 1459 1460 1461 1462 1463 1463
1452 1452 1452 1452 1451 1451 1451 1450 1450 1449 1449 1449 1449 1448 1448 1448 1448 1448 1449 1449 1449 1448 1448 1448 1448 1447 1447 1448 1448 1449 1450 1449 1449 1450 1450 1451 1452 1452 1453 1454 1455 1456 1456
1450 1450 1449 1449 1449 1448 1448 1447 1447 1447 1446 1446 1445 1445 1445 1444 1444 1445 1445 1445 1445 1444 1443 1443 1442 1442 1441 1442 1443 1443 1444 1443 1443 1444 1444 1444 1445 1446 1447 1447 1447 1448 1449
1448 1448 1447 1447 1446 1446 1445 1445 1444 1444 1443 1442 1442 1442 1441 1441 1441 1440 1441 1441 1440 1439 1439 1439 1437 1436 1436 1437 1437 1438 1438 1437 1437 1437 1438 1438 1438 1439 1440 1441 1440 1441 1442
1446 1445 1445 1444 1444 1443 1442 1442 1441 1441 1440 1439 1439 1438 1438 1437 1437 1437 1437 1436 1436 1435 1435 1434 1433 1432 1431 1432 1432 1432 1432 1431 1431 1431 1431 1431 1432 1433 1433 1434 1434 1434 1434
1444 1444 1443 1442 1442 1441 1440 1439 1439 1438 1438 1437 1436 1435 1435 1434 1434 1433 1433 1432 1432 1431 1430 1429 1428 1428 1427 1427 1427 1427 1426 1426 1425 1425 1424 1425 1426 1426 1427 1428 1428 1428 1429
1442 1442 1441 1440 1440 1439 1438 1437 1436 1436 1435 1434 1433 1432 1431 1431 1430 1430 1429 1428 1428 1427 1426 1425 1424 1423 1423 1422 1422 1421 1421 1421 1420 1419 1419 1419 1420 1420 1421 1421 1421 1422 1422
1440 1440 1439 1438 1438 1437 1436 1435 1434 1433 1432 1431 1430 1429 1428 1427 1427 1426 1425 1425 1424 1423 1422 1421 1420 1419 1418 1418 1417 1417 1416 1416 1416 1415 1414 1414 1414 1414 1414 1415 1415 1416 1416
1438 1438 1437 1436 1435 1435 1434 1433 1432 1431 1430 1429 1427 1426 1425 1424 1424 1423 1422 1421 1420 1420 1419 1417 1416 1415 1414 1413 1413 1412 1412 1411 1411 1410 1409 1409 1409 1408 1408 1408 1409 1409 1409
1436 1436 1435 1434 1433 1433 1432 1431 1430 1428 1427 1426 1425 1424 1422 1421 1420 1420 1419 1418 1417 1417 1416 1415 1414 1412 1410 1410 1409 1408 1407 1406 1406 1405 1404 1403 1402 1402 1402 1402 1402 1402 1402
1434 1434 1433 1432 1431 1430 1429 1429 1427 1426 1425 1423 1422 1421 1420 1418 1417 1416 1415 1414 1414 1413 1412 1411 1410 1409 1408 1406 1404 1403 1402 1401 1401 1400 1398 1397 1397 1396 1396 1396 1396 1396 1395